Middlesboro, KY

9:18 PM EST on December 07, 2016 (GMT -0500)
Middlesboro

Weather History for K1A6 - April, 2014

Change the Weather History Date:

Wednesday, April 9, 2014

  Actual Average (KLOZ) Record (KLOZ)
Temperature  
Mean Temperature 52 °F 55 °F  
Max Temperature 64 °F 67 °F 86 °F (2015)
Min Temperature 40 °F 43 °F 23 °F (1972)
Degree Days  
Heating Degree Days 12 11  
Month to date heating degree days 108  
Since 1 July heating degree days 3933  
Cooling Degree Days 0 1  
Month to date cooling degree days 1  
Year to date cooling degree days 4  
Growing Degree Days 2 (Base 50)    
Moisture  
Dew Point 36 °F    
Average Humidity 57    
Maximum Humidity 82    
Minimum Humidity 28    
Precipitation  
Precipitation 0.00 in 0.14 in 0.99 in (1961)
Month to date precipitation 1.16  
Sea Level Pressure  
Sea Level Pressure 30.02 in    
Wind  
Wind Speed 5 mph (NW)    
Max Wind Speed 16 mph    
Max Gust Speed 28 mph    
Visibility 10 miles    
Events      
T = Trace of Precipitation, MM = Missing Value Source: NWS Daily Summary

Daily Weather History Graph

Daily Weather History Graph

Search for Another Location

Airport or City:

Trip Planner

Search our weather history database for the weather conditions in past years. The results will help you decide how hot, cold, wet, or windy it might be!

Date:

Astronomy

Apr. 09, 2014 Rise Set
Actual Time 6:09 AM CDT 7:04 PM CDT
Civil Twilight 5:43 AM CDT 7:30 PM CDT
Nautical Twilight 5:11 AM CDT 8:01 PM CDT
Astronomical Twilight 4:39 AM CDT 8:34 PM CDT
Moon 1:59 PM CDT (4/9) 2:49 AM CDT (4/9)
Length of Visible Light 13h 47m
Length of Day
12h 54m
Waxing Gibbous, 72% of the Moon is Illuminated
Apr 9
Waxing Gibbous
Apr 15
Full
Apr 22
Last Quarter
Apr 29
New
May 6
First Quarter

Hourly Weather History & Observations

Time (CDT) Temp. Dew Point Humidity Pressure Visibility Wind Dir Wind Speed Gust Speed Precip Events Conditions
12:15 AM 49.6 °F 43.5 °F 79% 29.85 in 10.0 mi Calm Calm - N/A   Light Drizzle
12:35 AM 49.5 °F 43.3 °F 79% 29.85 in 10.0 mi West 4.6 mph - N/A   Drizzle
12:55 AM 49.1 °F 43.9 °F 82% 29.85 in 10.0 mi Calm Calm - N/A   Light Drizzle
1:15 AM 49.3 °F 43.7 °F 81% 29.86 in 10.0 mi Calm Calm - N/A   Overcast
1:35 AM 49.5 °F 43.7 °F 81% 29.86 in 10.0 mi Calm Calm - N/A   Overcast
1:55 AM 49.5 °F 43.2 °F 79% 29.86 in 10.0 mi WNW 3.5 mph - N/A   Overcast
2:15 AM 49.5 °F 43.3 °F 79% 29.86 in 10.0 mi NW 4.6 mph - N/A   Overcast
2:35 AM 49.5 °F 43.2 °F 79% 29.86 in 10.0 mi NW 9.2 mph - N/A   Overcast
2:55 AM 49.3 °F 43.2 °F 79% 29.87 in 10.0 mi NW 8.1 mph - N/A   Overcast
3:15 AM 49.5 °F 43.5 °F 80% 29.87 in 10.0 mi NNW 5.8 mph - N/A   Overcast
3:35 AM 49.1 °F 43.3 °F 81% 29.87 in 10.0 mi North 6.9 mph - N/A   Overcast
3:55 AM 49.1 °F 43.0 °F 79% 29.87 in 10.0 mi NW 3.5 mph - N/A   Overcast
4:15 AM 49.1 °F 42.4 °F 78% 29.88 in 10.0 mi NNW 9.2 mph - N/A   Overcast
4:35 AM 49.1 °F 42.3 °F 77% 29.88 in 10.0 mi NNW 5.8 mph - N/A   Overcast
4:55 AM 49.1 °F 42.4 °F 78% 29.89 in 10.0 mi North 3.5 mph - N/A   Overcast
5:15 AM 49.1 °F 42.8 °F 79% 29.91 in 10.0 mi NNW 6.9 mph - N/A   Overcast
5:35 AM 49.1 °F 42.8 °F 79% 29.92 in 10.0 mi North 9.2 mph - N/A   Overcast
5:55 AM 48.6 °F 42.3 °F 79% 29.93 in 10.0 mi NNW 5.8 mph - N/A   Overcast
6:15 AM 48.4 °F 41.7 °F 78% 29.95 in 10.0 mi NNW 11.5 mph - N/A   Overcast
6:35 AM 48.2 °F 41.2 °F 77% 29.96 in 10.0 mi NNW 8.1 mph - N/A   Overcast
6:55 AM 48.2 °F 40.6 °F 75% 29.97 in 10.0 mi NW 9.2 mph - N/A   Overcast
7:15 AM 48.0 °F 40.3 °F 75% 29.99 in 10.0 mi NW 11.5 mph 16.1 mph N/A   Scattered Clouds
7:35 AM 48.7 °F 40.3 °F 73% 30.00 in 10.0 mi NW 8.1 mph 11.5 mph N/A   Scattered Clouds
7:55 AM 48.7 °F 39.9 °F 72% 30.01 in 10.0 mi NNW 6.9 mph - N/A   Scattered Clouds
8:15 AM 49.1 °F 39.6 °F 70% 30.02 in 10.0 mi NW 8.1 mph - N/A   Scattered Clouds
8:35 AM 50.7 °F 38.3 °F 62% 30.02 in 10.0 mi WNW 4.6 mph - N/A   Scattered Clouds
8:55 AM 51.3 °F 36.7 °F 57% 30.02 in 10.0 mi North 6.9 mph - N/A   Clear
9:15 AM 52.3 °F 36.9 °F 56% 30.03 in 10.0 mi North 11.5 mph 21.9 mph N/A   Clear
9:35 AM 53.2 °F 36.5 °F 53% 30.05 in 10.0 mi WNW 3.5 mph 17.3 mph N/A   Scattered Clouds
9:55 AM 54.0 °F 37.6 °F 54% 30.06 in 10.0 mi WNW 8.1 mph - N/A   Mostly Cloudy
10:15 AM 54.9 °F 36.7 °F 50% 30.06 in 10.0 mi WNW 3.5 mph - N/A   Scattered Clouds
10:55 AM 56.3 °F 35.1 °F 45% 30.07 in 10.0 mi WNW 9.2 mph - N/A   Mostly Cloudy
11:15 AM 57.9 °F 33.3 °F 39% 30.06 in 10.0 mi NNW 10.4 mph 17.3 mph N/A   Scattered Clouds
11:35 AM 58.8 °F 32.9 °F 38% 30.06 in 10.0 mi NW 12.7 mph 19.6 mph N/A   Scattered Clouds
11:55 AM 59.7 °F 32.7 °F 36% 30.06 in 10.0 mi WNW 13.8 mph 27.6 mph N/A   Scattered Clouds
12:15 PM 60.1 °F 34.3 °F 38% 30.07 in 10.0 mi NNW 13.8 mph 19.6 mph N/A   Scattered Clouds
12:35 PM 60.4 °F 33.1 °F 36% 30.06 in 10.0 mi WNW 10.4 mph 17.3 mph N/A   Scattered Clouds
12:55 PM 61.0 °F 32.5 °F 34% 30.06 in 10.0 mi WNW 12.7 mph 20.7 mph N/A   Scattered Clouds
1:15 PM 61.5 °F 32.9 °F 34% 30.06 in 10.0 mi WNW 13.8 mph 19.6 mph N/A   Mostly Cloudy
1:35 PM 62.2 °F 32.4 °F 33% 30.06 in 10.0 mi WNW 16.1 mph 21.9 mph N/A   Mostly Cloudy
1:55 PM 61.9 °F 31.8 °F 32% 30.05 in 10.0 mi NW 5.8 mph 20.7 mph N/A   Mostly Cloudy
2:15 PM 61.7 °F 29.8 °F 30% 30.05 in 10.0 mi NW 3.5 mph - N/A   Scattered Clouds
2:35 PM 62.8 °F 30.2 °F 29% 30.05 in 10.0 mi NW 10.4 mph 17.3 mph N/A   Scattered Clouds
2:55 PM 63.1 °F 30.2 °F 29% 30.05 in 10.0 mi WNW 13.8 mph 21.9 mph N/A   Clear
3:15 PM 63.3 °F 30.4 °F 29% 30.04 in 10.0 mi NNW 10.4 mph 16.1 mph N/A   Clear
3:35 PM 64.4 °F 30.6 °F 28% 30.05 in 10.0 mi West 6.9 mph - N/A   Scattered Clouds
3:55 PM 62.8 °F 29.1 °F 28% 30.05 in 10.0 mi NW 8.1 mph 18.4 mph N/A   Scattered Clouds
4:15 PM 62.8 °F 29.8 °F 29% 30.05 in 10.0 mi WNW 9.2 mph - N/A   Mostly Cloudy
4:35 PM 62.1 °F 30.7 °F 31% 30.06 in 10.0 mi WNW 15.0 mph - N/A   Mostly Cloudy
4:55 PM 62.6 °F 30.6 °F 30% 30.06 in 10.0 mi NNE 4.6 mph - N/A   Mostly Cloudy
5:15 PM 62.6 °F 29.3 °F 28% 30.06 in 10.0 mi West 9.2 mph - N/A   Scattered Clouds
5:35 PM 62.1 °F 28.4 °F 28% 30.06 in 10.0 mi West 11.5 mph - N/A   Mostly Cloudy
5:55 PM 61.3 °F 28.9 °F 29% 30.07 in 10.0 mi West 5.8 mph - N/A   Scattered Clouds
6:15 PM 60.8 °F 29.1 °F 30% 30.07 in 10.0 mi NW 11.5 mph 16.1 mph N/A   Scattered Clouds
6:35 PM 59.7 °F 29.8 °F 32% 30.08 in 10.0 mi WNW 6.9 mph - N/A   Scattered Clouds
6:55 PM 58.1 °F 30.7 °F 35% 30.09 in 10.0 mi WNW 5.8 mph - N/A   Clear
7:15 PM 57.2 °F 31.3 °F 37% 30.09 in 10.0 mi NW 5.8 mph - N/A   Clear
7:35 PM 56.5 °F 30.6 °F 37% 30.09 in 10.0 mi Calm Calm - N/A   Clear
7:55 PM 52.9 °F 33.8 °F 48% 30.10 in 10.0 mi Calm Calm - N/A   Clear
8:15 PM 51.1 °F 35.1 °F 54% 30.11 in 10.0 mi WNW 3.5 mph - N/A   Clear
8:35 PM 50.0 °F 35.6 °F 58% 30.12 in 10.0 mi NW 3.5 mph - N/A   Clear
8:55 PM 49.5 °F 34.9 °F 57% 30.13 in 10.0 mi Calm Calm - N/A   Clear
9:15 PM 49.6 °F 34.2 °F 55% 30.13 in 10.0 mi West 5.8 mph - N/A   Clear
9:35 PM 46.9 °F 35.4 °F 64% 30.13 in 10.0 mi Calm Calm - N/A   Clear
9:55 PM 47.3 °F 34.7 °F 62% 30.14 in 10.0 mi Calm Calm - N/A   Clear
10:15 PM 46.0 °F 35.4 °F 66% 30.14 in 10.0 mi Calm Calm - N/A   Clear
10:35 PM 43.7 °F 36.1 °F 75% 30.14 in 10.0 mi Calm Calm - N/A   Clear
10:55 PM 42.6 °F 35.6 °F 76% 30.14 in 10.0 mi Calm Calm - N/A   Clear
11:15 PM 41.5 °F 35.2 °F 78% 30.14 in 10.0 mi Calm Calm - N/A   Clear
11:35 PM 41.5 °F 35.2 °F 78% 30.15 in 10.0 mi Calm Calm - N/A   Clear
11:55 PM 40.6 °F 35.6 °F 82% 30.15 in 10.0 mi Calm Calm - N/A   Clear